{"data":{"norad_id":63954,"intl_designator":"2025-099C","name":"STARLINK-33974","alt_names":[],"object_type":"PAYLOAD","status":"ACTIVE","operator":null,"country":"US","launch_date":"2025-05-13","launch_site_code":"AFETR","launch_vehicle":null,"mission":null,"orbit_class":"UNKNOWN","rcs_meters":null,"size_class":null,"mass_kg":null,"dimensions":null,"purposes":["comms"],"wikipedia_slug":null,"has_3d_model":false,"image_url":null,"decayed_at":null,"tle_current":{"epoch":"2026-09-20T10:08:35.971584Z","epoch_age_seconds":153814,"freshness":"FRESH","line1":"1 63954U 25099C   26263.42263856  .00009762  00000+0  36371-3 0  9993","line2":"2 63954  42.9994 156.8705 0001551 268.8752  91.1922 15.27587894 77114","mean_motion":15.27587894,"eccentricity":0.0001551,"inclination_deg":42.9994,"raan_deg":156.8705,"arg_perigee_deg":268.8752,"mean_anomaly_deg":91.1922,"bstar":0.00036371,"rev_number":7711,"period_min":94.26626157853,"perigee_km":481.96129236825,"apogee_km":484.08962496293,"semimajor_km":6861.1624586656,"source":"CELESTRAK","updated_at":"2026-09-21T09:00:35.174072Z"}}}